This is the latest recevied weather packets stored in our database for station/object YB1DDK-2. If no packets are shown the sender has not sent any weather packets the latest 10 day(s).
| Time | Temp. | Humidity | Pressure | Rain* | Wind** | Luminosity | Snow |
|---|---|---|---|---|---|---|---|
| 1777863628 | 34.44° C | 61% | 1002 hPa | - | - | 0 W/m² | - |
| 1777862706 | 34.44° C | 64% | 1003 hPa | - | - | 0 W/m² | - |
| 1777861784 | 33.89° C | 65% | 1003 hPa | - | - | 0 W/m² | - |
| 1777860862 | 33.33° C | 65% | 1003 hPa | - | - | 0 W/m² | - |
| 1777859940 | 33.33° C | 67% | 1003 hPa | - | - | 0 W/m² | - |
| 1777859019 | 32.78° C | 66% | 1002 hPa | - | - | 0 W/m² | - |
| 1777858095 | 32.22° C | 69% | 1002 hPa | - | - | 0 W/m² | - |
| 1777857173 | 32.22° C | 70% | 1002 hPa | - | - | 0 W/m² | - |
| 1777856252 | 31.67° C | 72% | 1002 hPa | - | - | 0 W/m² | - |
| 1777855330 | 31.11° C | 72% | 1002 hPa | - | - | 0 W/m² | - |
| 1777854407 | 31.11° C | 72% | 1002 hPa | - | - | 0 W/m² | - |
| 1777853485 | 31.11° C | 74% | 1002 hPa | - | - | 0 W/m² | - |
| 1777852563 | 30.56° C | 73% | 1002 hPa | - | - | 0 W/m² | - |
| 1777851641 | 30.56° C | 73% | 1002 hPa | - | - | 0 W/m² | - |
| 1777850720 | 30.56° C | 70% | 1002 hPa | - | - | 0 W/m² | - |
| 1777849797 | 30.56° C | 71% | 1001 hPa | - | - | 0 W/m² | - |
| 1777848875 | 31.11° C | 72% | 1001 hPa | - | - | 0 W/m² | - |
| 1777847953 | 31.11° C | 72% | 1001 hPa | - | - | 0 W/m² | - |
| 1777847031 | 31.11° C | 73% | 1001 hPa | - | - | 0 W/m² | - |
| 1777846109 | 31.11° C | 72% | 1001 hPa | - | - | 0 W/m² | - |
| 1777845187 | 31.11° C | 73% | 1001 hPa | - | - | 0 W/m² | - |
| 1777844266 | 31.11° C | 73% | 1001 hPa | - | - | 0 W/m² | - |
| 1777843344 | 31.11° C | 73% | 1001 hPa | - | - | 0 W/m² | - |
| 1777842422 | 31.11° C | 73% | 1001 hPa | - | - | 0 W/m² | - |
| 1777841499 | 31.67° C | 72% | 1001 hPa | - | - | 0 W/m² | - |
* Rain since midnight (hover to see other rain measurements)
** Current wind speed in m/s (hover to see current wind gust speed)